Location: Newark
(45.5000°N, 11.4167°E)
Time: 22:27:48
(UTC+00:00)

Transit 2A Rocket - Pass Details

Date: 29 August 2019
Orbit: 592 x 911 km, 66.7° (Epoch: 18 September)

Event Time Altitude Azimuth Distance (km) Brightness Sun altitude
Rises 01:46:32 0° 325° (NW) 2,995 8.2 -25.4°
Reaches altitude 10° 01:48:55 10° 323° (NW) 2,038 7.3 -25.1°
Enters shadow 01:51:18 30° 316° (NW) 1,130 5.9 -24.8°
